User: anonymous   Login
Location: Unspecified
(0.0000°N, 0.0000°E)
Time: 08:53:34
(UTC+02:00)
Language:

deb Delta 98 - Orbit

View from above orbital plane
View from above orbital plane
View from above satellite
View from above satellite

Ground track
Ground track

The orbit data is extracted from the following two-line orbital elements,

1  7145U 73086DK  18196.75749309 +.00000503 +00000-0 +73343-2 0  9990
2  7145 102.0031 306.7761 0316255 210.4868 310.9698 11.81450607927082
Epoch (UTC): 15 July 2018 18:10:47
Eccentricity: 0.0316255
inclination: 102.0031°
perigee height: 1507 km
apogee height: 2022 km
right ascension of ascending node: 306.7761°
argument of perigee: 210.4868°
revolutions per day: 11.81450607
mean anomaly at epoch: 310.9698°
orbit number at epoch: 92708

The dashed part of the orbit path shows where the satellite is in the earth's shadow,  

DLR